RH
86 86 86 86 86 86 86 86 85 85 86 86 87 87 87 87 87 87 87 87 87 87 87 87 87 86 85 84 82 80 79 77 75 74 73 72 71 70 70 69 69 68 68 68 67 67 66 65 65 64 64 63 63 62 62 62 63 64 67 70 73 76 77 75 74 72 69 67 65 64 62 61 60 58 57 56 53 50 48 47 45 44 42 41 40 40
85 85 85 85 85 84 84 84 83 83 83 83 84 84 85 85 85 85 86 85 85 85 85 85 85 84 84 83 82 80 78 76 74 72 70 69 68 67 67 66 66 65 65 64 64 63 62 62 61 61 60 60 59 59 58 58 58 58 59 61 63 65 67 67 66 64 62 61 59 58 56 54 53 51 50 48 47 45 43 42 42 41 41 41 41 41
82 81 81 81 81 81 81 81 82 82 82 81 81 81 81 81 82 81 81 81 81 81 81 81 80 80 80 79 78 77 75 73 71 70 68 67 66 65 64 63 63 62 61 61 60 59 59 58 58 58 57 57 56 55 54 53 52 52 51 51 51 52 52 53 54 54 54 54 54 54 53 51 50 48 46 44 42 41 41 41 41 42 42 42 42 42
79 78 78 77 77 77 77 77 78 78 79 79 78 78 78 79 80 80 79 78 78 78 78 77 77 76 75 74 73 72 71 70 68 67 66 65 64 63 62 61 61 60 59 59 58 57 57 56 56 55 54 53 52 51 50 49 48 47 46 46 46 46 45 46 47 47 48 49 49 49 49 47 46 44 42 41 41 41 42 43 43 43 42 42 42 42
76 75 75 74 73 73 73 72 72 73 73 72 72 72 71 72 74 74 74 74 74 74 74 74 73 72 71 70 69 68 67 66 65 64 63 62 62 61 60 59 58 58 57 56 56 55 54 53 52 51 50 49 47 46 45 45 45 45 45 45 45 46 46 46 46 46 46 46 46 45 44 43 42 41 41 41 42 43 44 44 43 43 42 42 42 42
74 73 72 71 70 70 70 69 68 68 68 68 67 67 66 66 66 67 67 66 66 66 66 66 66 66 65 65 64 64 63 62 62 61 60 59 58 57 56 56 55 54 53 52 51 50 49 48 47 46 46 45 45 44 44 44 45 45 46 46 47 47 48 48 48 48 47 46 45 44 44 43 43 42 42 43 43 43 43 43 42 42 41 41 42 42
73 71 70 69 68 68 67 67 67 66 66 66 66 65 64 63 63 62 61 61 60 59 59 58 58 58 58 58 58 57 57 56 56 55 54 54 53 52 51 50 49 48 47 46 45 44 44 44 44 44 45 45 46 46 47 47 48 49 49 50 50 51 51 51 50 50 49 48 47 47 46 46 45 45 44 43 43 42 41 41 40 40 40 40 41 41
72 71 69 68 68 67 66 66 65 65 64 64 64 64 63 63 62 60 59 58 57 56 55 54 53 53 52 52 51 51 50 49 49 48 47 47 46 45 45 45 44 43 43 43 43 43 44 44 45 46 47 48 49 50 50 51 52 53 53 54 54 55 54 54 53 52 50 49 48 47 47 46 45 44 43 41 40 40 39 38 38 38 38 39 39 39
71 69 68 67 66 65 64 63 62 62 61 61 60 60 60 59 59 58 56 55 54 52 51 50 49 48 48 47 47 46 45 44 44 43 43 42 43 42 43 43 43 43 44 44 45 46 47 48 49 50 51 52 52 53 53 53 54 55 55 56 56 55 55 54 52 50 48 47 46 45 44 43 42 41 40 39 38 37 37 36 36 36 36 36 35 35
63 63 63 62 61 60 59 58 57 56 56 56 55 55 54 54 54 53 52 51 50 49 48 47 46 45 44 44 44 43 43 42 42 43 43 43 43 44 44 45 46 46 47 48 49 50 51 52 53 53 53 53 52 52 52 53 53 54 54 54 53 51 49 47 45 43 41 40 39 39 39 39 38 38 37 37 36 35 35 35 34 34 34 34 34 34
54 55 55 55 54 53 54 52 51 51 51 51 51 50 50 50 50 49 48 47 47 46 45 44 44 43 43 43 43 44 44 44 44 45 46 46 47 47 48 48 49 50 51 52 53 54 54 54 53 52 51 50 49 49 50 50 50 49 49 47 45 43 41 39 37 35 34 33 32 33 33 34 35 36 36 36 36 35 35 34 34 35 35 35 35 37
49 49 49 49 48 48 49 48 48 47 47 47 47 47 46 47 47 47 46 45 45 45 46 45 45 45 46 46 46 46 47 47 47 48 49 49 50 50 51 51 52 52 53 54 54 54 53 52 50 48 47 47 47 47 47 46 46 44 43 41 39 37 36 34 32 31 30 29 28 28 29 31 32 34 36 37 37 37 37 37 37 37 38 39 40 41
47 47 47 46 46 46 47 47 47 46 46 46 46 46 45 46 46 46 45 45 45 46 47 47 47 48 49 49 50 50 50 50 50 51 51 51 52 52 52 52 52 52 53 53 52 50 49 47 45 44 44 44 43 43 43 42 41 40 39 38 37 36 35 33 32 31 30 29 28 28 29 30 32 34 36 38 39 40 41 41 42 43 45 46 47 47
49 49 48 47 47 47 47 48 47 47 47 47 47 47 47 47 48 48 47 47 47 47 48 48 48 49 50 51 52 52 52 52 52 52 52 52 52 52 52 51 50 49 49 47 46 44 43 41 40 39 38 38 37 36 35 35 35 35 35 35 34 33 33 32 31 30 29 29 29 29 30 32 34 36 38 40 42 44 45 47 48 49 50 51 52 52
52 51 50 49 49 49 49 49 48 48 48 48 48 48 48 48 48 48 48 48 47 48 49 48 48 49 50 51 51 51 51 51 51 50 50 50 50 49 48 46 45 43 42 41 39 38 37 36 35 33 32 32 31 31 30 30 30 31 31 31 30 30 29 29 28 28 28 29 30 31 33 35 38 39 41 43 45 47 49 51 52 52 53 53 53 53
53 52 51 51 50 49 49 48 48 47 47 48 48 48 47 47 47 48 47 47 47 47 47 47 46 47 47 47 47 47 46 46 45 46 45 45 45 45 43 41 38 37 36 35 34 33 33 32 31 30 29 29 30 30 29 29 30 30 30 30 29 29 28 28 28 29 29 31 33 35 38 39 41 43 44 45 47 49 51 52 53 53 53 53 52 52
52 51 51 50 49 48 48 47 46 46 46 46 46 46 45 45 45 45 44 44 44 44 44 44 44 44 43 42 41 40 40 39 38 38 38 38 38 38 37 35 33 32 32 33 33 33 33 32 32 32 32 31 31 31 31 31 32 32 32 31 30 30 29 30 30 31 33 35 37 39 41 42 44 45 46 47 49 51 52 53 53 53 53 52 51 50
50 50 49 49 48 47 46 45 45 44 44 44 43 43 42 42 41 41 41 41 41 41 41 41 41 40 39 37 36 35 34 32 31 31 31 32 32 33 35 34 33 33 34 35 37 37 37 36 36 36 35 35 34 34 34 34 34 33 32 31 30 30 30 31 32 33 35 37 38 40 42 44 45 47 48 49 51 53 54 54 53 52 50 48 46 44
48 48 47 46 46 45 44 44 43 43 42 42 41 40 39 39 38 39 39 39 39 40 39 38 37 35 34 32 31 31 31 30 29 28 29 30 32 35 38 38 38 38 38 39 40 39 38 37 37 36 37 37 37 37 37 37 36 34 32 31 30 30 30 31 32 33 34 35 36 38 40 42 44 46 47 48 49 49 49 47 46 44 42 40 39 38
46 45 45 44 43 42 42 41 41 41 40 39 39 38 37 37 37 37 37 37 37 36 35 34 33 31 30 29 29 30 31 32 32 31 32 34 37 40 43 42 41 39 38 38 38 37 36 35 35 35 37 37 38 38 38 37 36 34 32 31 30 30 29 30 31 31 32 32 33 34 35 36 38 38 39 39 39 38 37 36 35 35 35 35 35 35
44 43 42 42 41 41 40 40 40 39 38 37 37 36 36 36 36 35 35 35 34 33 33 32 32 32 32 33 33 35 37 38 37 36 36 37 39 41 42 41 39 37 36 36 36 36 35 35 36 37 38 39 39 39 38 36 34 32 31 30 29 29 29 30 30 31 31 31 30 30 31 31 31 31 31 30 30 29 29 30 31 32 33 34 35 35
44 43 43 43 42 42 41 40 40 39 38 37 36 36 36 35 35 34 34 35 35 35 34 34 35 36 38 39 40 41 43 42 41 39 37 36 37 38 40 40 38 36 35 35 36 37 37 38 39 40 40 40 39 38 36 34 32 30 29 28 28 29 30 31 31 31 31 30 29 29 28 28 28 28 27 27 27 28 29 31 32 34 35 35 36 36
46 46 46 46 45 44 43 42 41 39 38 38 38 37 37 38 38 38 38 38 38 38 38 39 40 41 42 42 42 42 42 41 39 37 36 35 34 35 38 38 36 35 35 36 37 38 39 40 40 41 40 40 38 36 34 32 30 29 28 28 29 30 31 31 31 31 30 29 28 27 26 26 26 26 26 27 28 29 31 33 34 35 36 36 36 37
50 49 49 48 47 46 45 44 44 43 43 43 43 43 42 42 42 41 41 41 40 40 40 40 40 40 39 39 39 38 38 38 37 36 35 34 33 33 35 36 36 35 35 37 38 39 39 40 40 40 39 38 36 34 32 30 29 28 28 28 29 30 30 30 30 30 29 28 27 26 26 25 25 26 27 28 30 32 33 34 34 35 35 36 38 39
51 51 51 50 50 50 50 49 49 49 49 48 47 46 45 44 43 41 40 40 39 38 37 37 37 36 36 36 36 36 36 37 37 36 36 35 34 33 35 36 37 36 36 37 38 39 40 40 39 38 37 35 34 32 31 29 29 28 28 28 29 29 29 29 29 28 28 28 28 27 27 27 28 29 30 31 32 33 33 34 34 35 36 38 40 42
53 53 53 54 54 54 54 54 53 52 51 50 48 46 44 42 41 39 38 38 37 37 36 36 36 36 35 35 35 35 36 37 37 37 37 37 35 35 35 37 38 38 37 38 39 39 39 38 37 36 35 34 33 32 30 29 28 28 28 28 28 27 27 28 28 28 28 28 28 28 29 29 30 31 32 33 33 33 33 34 35 36 37 38 39 40
55 55 56 56 56 55 54 54 52 51 49 47 45 43 42 40 40 39 39 39 39 39 39 39 38 37 37 37 37 37 38 38 38 38 38 38 38 37 37 38 39 39 39 38 38 38 38 37 36 35 34 33 32 31 29 28 28 27 27 27 26 27 27 27 27 28 28 28 28 29 30 31 32 32 33 33 32 33 33 34 35 36 37 38 39 39
54 55 55 54 54 53 52 51 50 48 47 46 44 43 42 42 42 42 42 42 42 41 41 41 41 40 40 39 39 39 39 40 40 40 40 40 40 40 39 40 40 40 40 39 38 37 37 36 35 33 32 31 30 29 28 27 26 26 26 26 26 27 27 28 29 29 30 30 30 31 31 32 32 32 32 32 32 33 34 35 37 38 39 40 40 40
54 54 54 54 53 53 52 51 50 49 48 48 47 46 46 45 45 46 45 45 45 45 45 44 44 44 43 42 41 41 42 42 42 42 42 42 42 41 41 41 41 41 40 40 39 37 36 35 33 32 30 29 28 27 26 26 26 26 26 27 28 29 30 31 32 32 33 33 32 32 32 31 31 31 31 32 33 35 36 37 38 39 40 40 40 39
54 54 54 54 54 53 53 52 51 51 50 49 49 48 48 47 48 48 48 48 48 48 48 48 47 46 46 45 45 45 45 44 44 44 43 43 43 43 42 42 41 41 42 42 41 39 37 34 32 30 29 28 27 27 27 27 27 28 29 30 32 33 34 34 34 34 33 32 31 31 30 30 30 31 32 34 35 36 37 38 39 40 40 40 39 38
53 52 53 52 52 52 51 51 50 50 49 49 49 49 50 50 50 50 51 51 51 50 50 50 49 49 49 50 50 50 49 45 43 44 44 44 44 44 43 43 43 42 42 43 43 41 39 35 32 30 29 28 28 28 29 30 31 32 33 34 35 35 35 35 34 32 31 30 29 29 29 30 31 33 34 36 36 37 37 38 38 39 39 38 37 35
53 53 53 53 52 52 52 51 51 51 50 50 51 51 51 52 52 52 52 52 52 52 52 51 51 51 52 52 52 51 49 45 44 44 46 45 45 45 44 45 44 43 43 43 43 42 41 38 34 31 30 30 31 32 33 34 35 36 36 36 36 35 34 33 32 30 29 29 29 30 31 32 34 35 36 37 37 37 37 37 37 37 38 37 34 31
58 57 57 57 57 56 55 55 54 54 53 53 53 52 53 52 53 53 53 53 53 53 53 53 53 53 52 52 51 50 48 46 45 46 47 47 47 46 46 45 45 44 43 42 41 41 40 38 36 33 33 34 35 37 37 37 37 37 37 37 35 34 33 32 31 31 30 31 32 33 34 35 36 37 37 37 37 36 36 36 36 36 36 34 31 27
62 62 61 61 60 60 59 58 58 57 56 56 55 55 54 54 54 54 54 54 53 53 53 53 52 52 52 52 51 50 48 47 47 48 49 49 49 48 47 46 45 44 43 42 41 41 40 40 39 39 39 39 39 40 40 39 38 38 37 36 35 34 33 33 33 33 33 34 35 36 37 37 38 37 37 37 36 36 36 35 34 32 31 30 28 25
65 64 64 63 63 62 62 61 60 59 59 59 58 58 57 57 57 56 56 55 55 54 53 53 53 52 52 52 52 51 49 48 48 49 50 50 50 48 47 45 44 44 44 44 43 43 43 43 43 44 44 43 41 40 39 39 38 38 37 37 36 36 35 35 35 36 36 37 38 39 39 39 38 38 37 37 36 36 34 31 29 26 24 24 24 24
66 65 64 63 63 63 63 62 62 61 61 61 61 61 60 60 60 59 58 57 56 55 54 54 54 53 53 53 52 51 49 49 48 48 49 48 48 47 45 44 44 44 45 46 46 46 46 46 46 46 45 44 42 40 39 39 39 38 38 38 37 37 37 37 38 38 39 40 40 40 39 39 38 38 37 36 34 32 29 25 23 21 20 20 21 22
64 63 62 62 62 62 62 62 62 62 62 62 62 62 62 62 61 60 59 58 57 57 56 56 55 55 54 53 52 50 48 46 45 45 45 45 44 44 44 43 44 45 47 48 48 48 47 47 46 45 44 43 43 41 40 39 40 40 40 40 40 39 39 39 40 41 41 41 40 40 39 39 39 37 35 33 29 26 22 20 19 18 19 19 20 21
63 62 61 61 61 62 62 62 62 63 63 63 63 63 63 62 62 61 60 60 59 59 59 58 57 55 53 51 49 46 43 42 41 41 41 41 41 42 43 44 46 47 49 49 48 47 46 46 44 43 43 42 41 41 42 42 42 42 42 42 42 42 42 42 42 42 41 41 40 39 39 38 36 34 30 27 23 20 18 18 18 19 19 20 20 21
63 62 62 62 62 62 63 63 63 63 64 64 63 63 63 63 63 63 63 62 62 61 61 59 57 54 50 46 43 40 38 37 36 37 38 39 40 42 44 46 47 48 48 47 46 44 43 42 42 42 42 42 42 43 43 44 45 44 44 44 44 43 43 42 42 41 40 40 39 38 37 35 32 28 25 22 20 19 19 19 19 20 20 21 21 21
64 64 64 63 63 64 64 64 64 64 65 64 64 64 65 65 66 66 66 65 64 62 60 56 52 48 44 40 38 36 35 34 35 36 37 39 42 44 46 47 47 46 45 44 43 41 40 40 40 41 42 43 44 45 46 47 47 46 47 46 45 44 42 42 41 40 40 39 38 36 33 30 26 23 21 20 19 20 20 20 20 20 21 22 22 22
66 66 65 65 65 66 66 66 66 66 67 66 67 67 67 67 68 67 67 65 62 58 54 50 46 43 41 38 37 36 36 36 37 38 40 41 43 44 45 45 44 43 42 41 41 40 39 40 40 42 43 44 46 47 48 48 48 48 49 48 46 44 42 41 41 40 39 37 35 32 29 25 22 20 20 20 20 21 21 22 22 22 23 23 24 25
68 68 67 66 67 67 67 67 68 68 67 67 67 67 66 66 66 65 63 60 57 53 48 46 44 43 42 41 39 39 39 39 39 40 41 42 42 42 42 41 41 40 41 41 41 41 41 41 41 43 44 46 48 49 50 48 48 48 48 47 46 44 41 40 39 38 37 34 31 27 24 22 21 20 21 21 21 22 22 23 23 24 25 25 25 26
66 67 68 68 67 67 67 67 67 66 65 64 63 62 61 61 60 60 58 56 54 52 49 48 48 48 47 46 44 43 42 41 41 41 41 40 40 40 40 40 41 41 41 42 42 42 42 42 43 44 45 47 50 51 51 49 48 47 46 46 45 45 43 40 37 35 33 30 26 23 22 21 21 22 22 22 23 23 23 24 25 26 26 26 26 26
60 64 66 67 66 65 65 64 62 61 59 58 57 57 56 56 56 56 57 57 56 55 53 53 53 53 53 52 49 46 44 42 41 40 39 40 40 40 41 41 42 42 43 43 43 43 43 43 44 46 48 49 51 52 51 50 48 47 45 44 44 44 43 39 35 32 28 25 23 21 21 21 22 23 23 23 24 24 25 26 26 26 26 26 26 26
52 57 61 63 63 63 62 60 59 58 57 56 56 56 56 55 56 57 59 60 60 60 59 60 60 60 59 56 53 49 46 43 41 40 40 40 41 41 41 42 42 43 43 43 43 44 44 45 46 47 49 50 51 51 51 49 47 45 44 43 42 41 40 37 33 29 25 23 21 20 21 22 23 24 25 25 25 25 26 27 27 27 26 26 26 25
42 45 49 52 56 58 59 60 60 59 59 59 59 59 60 60 60 61 62 63 64 64 63 64 64 63 62 58 54 50 47 44 42 41 40 40 41 41 42 42 43 44 44 44 44 45 45 47 48 49 50 51 51 50 49 48 46 45 43 41 41 39 37 33 29 26 24 22 22 21 21 23 25 26 26 27 27 27 27 28 27 27 26 25 25 24
37 37 37 40 44 49 54 58 61 62 63 63 63 64 65 65 65 65 65 65 66 65 65 64 64 62 61 57 53 49 46 44 42 42 41 42 42 43 44 44 45 45 45 46 46 47 47 49 51 52 52 52 50 48 46 45 45 44 43 41 39 37 34 30 26 24 23 23 23 23 23 25 26 27 28 28 29 29 28 28 27 26 26 25 24 23
38 36 35 35 37 40 45 51 57 62 65 66 67 67 68 67 67 67 66 65 65 64 62 61 60 59 56 53 49 47 45 44 44 43 43 44 45 45 46 47 47 47 47 47 48 48 50 51 52 52 52 51 49 48 45 45 44 43 42 40 38 35 31 27 25 23 23 24 24 24 25 27 28 29 30 30 30 29 28 27 26 25 24 24 23 23
40 39 38 37 37 39 41 45 50 56 62 65 66 66 67 65 64 64 62 62 61 59 57 57 56 55 52 49 47 45 45 45 45 45 45 46 47 48 49 49 49 49 49 49 50 51 52 53 53 52 50 49 48 47 46 44 43 42 41 38 36 33 29 26 24 23 24 24 24 25 26 28 29 30 31 31 31 30 28 27 26 24 24 24 24 24
42 42 41 41 41 42 42 43 45 48 52 55 58 60 61 60 60 59 58 57 56 54 53 53 52 51 49 47 46 46 46 46 47 47 47 48 49 51 52 52 52 52 52 53 54 55 55 55 53 51 48 48 47 47 46 44 42 40 38 35 32 30 27 25 24 23 24 24 25 26 27 28 29 31 32 32 31 30 28 26 25 24 23 24 25 26
43 43 44 44 44 44 43 42 42 42 42 43 45 48 51 53 54 55 54 53 52 51 50 49 50 49 49 48 48 47 47 48 48 49 49 50 52 53 54 54 54 55 55 56 57 58 58 57 55 52 48 47 46 46 45 43 41 38 36 32 28 26 25 24 24 24 25 26 27 27 28 29 30 31 31 31 30 29 28 26 24 24 24 26 28 29